Current Version              Previous Version:    01  02  03  04  05  06  07  08  09  10  11  12  13  14  15  16  17  18  19  20  21  22  23  24  25  26  27  28  29  30  
   31  32  33  34  35  36  37  38  39  40  41  42  43  44  45  46  47  48  49  50  51  52  53  54  55  56  57  58  59  60  

[Printable]
674
ASUS44 KFWD 241202
RWRTX
NORTH TEXAS HOURLY WEATHER ROUNDUP
NATIONAL WEATHER SERVICE FORT WORTH TX
ISSUED BY NWS SHREVEPORT LA
600 AM CST MON NOV 24 2014

NOTE: "FAIR" INDICATES FEW OR NO CLOUDS BELOW 12,000 FEET WITH NO
SIGNIFICANT WEATHER AND/OR OBSTRUCTIONS TO VISIBILITY.

TXZ118-119-241300-
DALLAS/FORT WORTH METROPLEX

CITY           SKY/WX    TMP DP  RH WIND       PRES   REMARKS
DFW AIRPORT    CLEAR     44  34  67 W13       29.95R WCI  38
6HR MIN TEMP:  44; 6HR MAX TEMP:  48;

DALLAS LOVE    CLEAR     45  36  70 NW7       29.96R
6HR MIN TEMP:  43; 6HR MAX TEMP:  50;

FTW MEACHAM    CLEAR     44  35  70 W7        29.96R
6HR MIN TEMP:  44; 6HR MAX TEMP:  49;

DAL-EXECUTIVE  CLEAR     46  35  65 W12       29.95R
6HR MIN TEMP:  46; 6HR MAX TEMP:  50;

FTW-ALLIANCE   CLEAR     42  34  73 W8        29.96R WCI  37
6HR MIN TEMP:  42; 6HR MAX TEMP:  46;

FTW-NAS-JRB    CLEAR     47  33  58 W7        30.02R
6HR MIN TEMP:  47; 6HR MAX TEMP:  53;

ARLINGTON      CLEAR     45  34  65 W8        29.96R
6HR MIN TEMP:  45; 6HR MAX TEMP:  51;

$$

TXZ091>094-102>105-117-120-121-131>134-241300-
NORTH CENTRAL TEXAS

CITY           SKY/WX    TMP DP  RH WIND       PRES   REMARKS
SHRMAN/DENISON CLEAR     38  36  90 W6        29.95R WCI  34
6HR MIN TEMP:  38; 6HR MAX TEMP:  47;

DENTON         CLEAR     38  34  85 W6        29.96R WCI  33
6HR MIN TEMP:  37; 6HR MAX TEMP:  45;

MCKINNEY       CLEAR     43  35  73 W9        29.95R WCI  38
6HR MIN TEMP:  43; 6HR MAX TEMP:  48;

TERRELL        CLEAR     45  36  70 NW8       29.94R
6HR MIN TEMP:  44; 6HR MAX TEMP:  52;

$$

TXZ083>090-098>101-113>116-127>130-139>142-154-155-241300-
WESTERN NORTH TEXAS

CITY           SKY/WX    TMP DP  RH WIND       PRES   REMARKS
WICHITA FALLS  CLEAR     38  27  64 W10       29.98R WCI  31
6HR MIN TEMP:  38; 6HR MAX TEMP:  46;

ABILENE        CLEAR     39  30  70 CALM      30.03R
6HR MIN TEMP:  37; 6HR MAX TEMP:  43;

ABILENE-DYESS  CLEAR     38  30  71 W8        30.01R WCI  32
6HR MIN TEMP:  38; 6HR MAX TEMP:  43;

MINERAL WELLS  CLEAR    N/A N/A N/A W6        29.98R
STEPHENVILLE   CLEAR     41  34  75 NW6       30.01R WCI  37
6HR MIN TEMP:  41; 6HR MAX TEMP:  47;

$$

TXZ143>147-156>162-174-175-241300-
CENTRAL TEXAS

CITY           SKY/WX    TMP DP  RH WIND       PRES   REMARKS
WACO           CLEAR     38  36  92 SW7       29.98R WCI  33
6HR MIN TEMP:  38; 6HR MAX TEMP:  51;

WACO-MCGREGOR  CLEAR     43  32  65 W7        29.99R WCI  39
6HR MIN TEMP:  41; 6HR MAX TEMP:  50;

CORSICANA      CLEAR     41  35  79 W6        29.96R WCI  37
6HR MIN TEMP:  41; 6HR MAX TEMP:  52;

TEMPLE         CLEAR     45  34  65 NW12      29.96R WCI  39
6HR MIN TEMP:  45; 6HR MAX TEMP:  52;

KILLEEN-GRAY   CLEAR     45  35  68 NW9       29.98R
6HR MIN TEMP:  45; 6HR MAX TEMP:  50;

KILLEEN-SKYLRK CLEAR     45  30  57 NW6       29.95R
6HR MIN TEMP:  45; 6HR MAX TEMP:  52;

FORT HOOD      CLEAR     47  36  65 W10       29.97R
6HR MIN TEMP:  47; 6HR MAX TEMP:  54;

$$

TXZ095>097-106>112-122>126-135>138-148>153-164>167-241300-
EAST TEXAS

CITY           SKY/WX    TMP DP  RH WIND       PRES   REMARKS
PARIS          CLEAR     37  34  87 W7        29.91R WCI  32
6HR MIN TEMP:  37; 6HR MAX TEMP:  50;

TYLER          CLEAR     45  36  70 CALM      29.92R
6HR MIN TEMP:  44; 6HR MAX TEMP:  52;

LONGVIEW       CLEAR     46  36  68 W5        29.91R
6HR MIN TEMP:  45; 6HR MAX TEMP:  55;

MARSHALL       SUNNY     48  40  74 W3        29.92R
6HR MIN TEMP:  48; 6HR MAX TEMP:  56;

JACKSONVILLE   CLEAR     47  37  70 NW7       29.93R
NACOGDOCHES    CLEAR     45  37  76 NW5       29.92R
6HR MIN TEMP:  45; 6HR MAX TEMP:  57;

LUFKIN         CLEAR     49  40  71 NW6       29.92R
6HR MIN TEMP:  49; 6HR MAX TEMP:  61;

$$

SUPPLEMENTAL OBSERVATIONS (CENTRAL)

CITY           SKY/WX    TMP DP  RH WIND       PRES   REMARKS
$$

SUPPLEMENTAL OBSERVATIONS (WEST)

CITY           SKY/WX    TMP DP  RH WIND       PRES   REMARKS
$$

SUPPLEMENTAL OBSERVATIONS (EAST)

CITY           SKY/WX    TMP DP  RH WIND       PRES   REMARKS
$$

SUPPLEMENTAL OBSERVATIONS ARE A COLLECTION OF AUTOMATED INSTRUMENTS
THAT ARE MAINTAINED BY A VARIETY OF FEDERAL AND STATE AGENCIES.
CERTAIN ELEMENTS...SUCH AS HUMIDITY VALUES AND SUSTAINED WIND
SPEEDS...MAY BE ESTIMATED.